{"data":{"norad_id":68400,"epoch":"2026-09-19T08:23:13.845120Z","epoch_age_seconds":147040,"freshness":"FRESH","line1":"1 68400U 26063W   26262.34946580  .00015802  00000+0  49068-3 0  9997","line2":"2 68400  97.2869  43.2486 0002688  91.1147 269.0404 15.33447881 27575","mean_motion":15.33447881,"eccentricity":0.0002688,"inclination_deg":97.2869,"raan_deg":43.2486,"arg_perigee_deg":91.1147,"mean_anomaly_deg":269.0404,"bstar":0.00049068,"rev_number":2757,"period_min":93.906028228422,"perigee_km":463.69502373571,"apogee_km":467.3741815893,"semimajor_km":6843.6716026625,"source":"CELESTRAK","updated_at":"2026-09-20T09:00:43.898544Z"}}